Regional Weather Roundup
Issued by NWS State College, PA

Home | Current Version | Previous Version | Graphics & Text | Print | Product List | Glossary On
Versions: 1 2 3 4 5 6 7 8 9 10 11 12 13 14 15 16 17 18 19 20 21 22 23 24 25 26 27 28 29 30 31 32 33 34 35 36 37 38 39 40 41 42 43 44 45 46 47 48 49 50
000
ASUS41 KCTP 021410
RWRCTP

REGIONAL WEATHER ROUNDUP
NATIONAL WEATHER SERVICE STATE COLLEGE PA
900 AM EST FRI DEC 02 2016

Note: "fair" indicates few or no clouds below 12,000 feet with no
significant weather and/or obstructions to visibility.

* = STATION THAT DOES NOT REPORT PRECIPITATION /E.G. RAIN...SNOW...ETC/
    THUNDER OR FOG.

PAZ002>004-007>009-013>016-020>023-029>032-021500-
WESTERN PENNSYLVANIA

CITY           SKY/WX    TMP DP  RH WIND       PRES   REMARKS
ERIE           RAIN      37  34  89 VRB7      29.96R FOG
MEADVILLE      CLOUDY    35  29  78 W12       29.97R
FRANKLIN*        N/A     36  27  69 W10G22    29.98S
NEW CASTLE     CLOUDY    37  30  75 W8        30.04R
BEAVER COUNTY  CLOUDY    36  30  80 W10G18    30.03R
BUTLER*        CLOUDY    36  28  75 W9        30.05R
PITTSBURGH INT CLOUDY    37  28  70 SW9       30.04R
PITTSBURGH     CLOUDY    35  26  69 SW14      30.05R
INDIANA*       CLOUDY    36  30  80 W15       30.04R
LATROBE        CLOUDY    36  28  75 W14       30.06R
WASHINGTON CO* CLOUDY    36  27  69 W8        30.08R
$$

PAZ004>006-010>012-017>019-024>028-033>037-041-042-045-046-049>053-021500-
CENTRAL PENNSYLVANIA

CITY           SKY/WX    TMP DP  RH WIND       PRES   REMARKS
BRADFORD       MIX PCPN  34  31  88 W10G17    29.88S
DUBOIS         CLOUDY    35  28  75 W17G24    29.94R
CLEARFIELD     CLOUDY    37  30  75 SW10G23   29.95S
JOHNSTOWN      CLOUDY    31  27  85 W13       29.97R
ALTOONA        CLOUDY    37  28  70 W14       30.00R
STATE COLLEGE  PTSUNNY   37  30  75 SW15      29.96R
WILLIAMSPORT   CLOUDY    43  31  62 W10       29.93S
SELINSGROVE    MOSUNNY   42  32  67 W9        29.98R
FT INDIANTOWN  PTSUNNY   41  30  65 W10G23    29.98S
CAPITAL CITY   PTSUNNY   43  28  55 W7        30.01R
HARRISBURG     CLOUDY    42  32  67 NW14      30.00R
YORK           MOSUNNY   42  30  62 W8        30.01R
$$

PAZ038>040-043-044-047-048-054-055-060>062-067>071-021500-
EASTERN PENNSYLVANIA

CITY           SKY/WX    TMP DP  RH WIND       PRES   REMARKS
SCRANTON       CLOUDY    39  30  70 SW10      29.90R
MOUNT POCONO   CLOUDY    33  27  78 W13       29.88R
ALLENTOWN      CLOUDY    41  30  65 W10       29.96R
QUAKERTOWN*    MOSUNNY   39  28  65 W8        29.97R
READING        CLOUDY    41  29  62 W5        29.98R
LANCASTER      MOSUNNY   40  32  73 W10       29.99R
COATESVILLE    CLOUDY    41  28  60 W16       29.99R
POTTSTOWN      MOSUNNY   42  29  59 W10       29.99R
BLUE BELL      PTSUNNY   41  30  65 W8        29.97R
DOYLESTOWN     MOSUNNY   43  30  60 W9G17     29.95R
WILLOW GROVE   NOT AVBL
NORTH PHILA    MOSUNNY   46  30  53 W10       29.99R
PHILADELPHIA   PTSUNNY   45  28  51 W15       29.99R
$$




USA.gov is the U.S. government's official web portal to all federal, state and local government web resources and services.